Regional Weather Roundup
Issued by NWS

Home | Current Version | Previous Version | Text Only | Print | Product List | Glossary On
Versions: 1 2 3 4 5 6 7 8 9 10 11 12 13 14 15 16 17 18 19 20 21 22 23 24 25 26 27 28 29 30 31 32 33 34 35 36 37 38 39 40 41 42 43 44 45 46 47 48 49 50
000
ASUS43 KTOP 031008
RWRKS

WEATHER ROUNDUP FOR KANSAS
NATIONAL WEATHER SERVICE GOODLAND KS
500 AM CDT TUE AUG 03 2021

NOTE:  "FAIR" INDICATES FEW OR NO CLOUDS BELOW 12,000 FEET WITH NO
SIGNIFICANT WEATHER AND/OR OBSTRUCTIONS TO VISIBILITY.

KSZ001>006-013>018-027>032-041>047-031100-
NORTHWEST KANSAS

CITY           SKY/WX    TMP DP  RH WIND       PRES   REMARKS
GOODLAND       CLEAR     64  53  67 SW14      30.12F
HAYS           CLOUDY    59  51  75 E5        30.13R
HILL CITY      CLEAR     59  51  75 E3        30.12F
RUSSELL        MOCLDY    62  51  67 SE8       30.11S
$$

KSZ061>065-074>080-084>089-031100-
SOUTHWEST KANSAS

CITY           SKY/WX    TMP DP  RH WIND       PRES   REMARKS
DODGE CITY     CLEAR     60  53  77 S5        30.12F
ELKHART        CLOUDY    65  52  61 SW14      30.20S
GARDEN CITY    CLEAR     57  54  89 SW9       30.13S
GREAT BEND     CLEAR     59  53  80 E5        30.13S
LIBERAL        MOCLDY    61  56  83 W7        30.16S
PRATT          CLEAR     64  52  65 CALM      30.13S
$$

KSZ066>073-081>083-090>101-031100-
SOUTHEAST KANSAS

CITY           SKY/WX    TMP DP  RH WIND       PRES   REMARKS
CHANUTE        CLEAR     66  62  87 E5        30.09F
COFFEYVILLE    CLEAR     62  61  96 CALM      30.06F
HUTCHINSON     CLEAR     59  53  80 CALM      30.11S HAZE
MEDICINE LODGE   N/A     57  53  86 CALM      30.11S
NEWTON         CLEAR    N/A N/A N/A E6        30.12S
PARSONS        CLEAR     65  63  93 NE3       30.09F
WICHITA INTL   CLEAR     66  57  72 NE5       30.10S
WICHITA JABRA  CLEAR     59  55  87 NE5       30.10S
WICHITA MCCONL CLEAR     66  56  70 E7        30.10S
WINFIELD       CLEAR     65  59  81 E3        30.10S
$$

KSZ007>012-019>026-033>040-048>060-102>105-031100-
NORTHEAST KANSAS

CITY           SKY/WX    TMP DP  RH WIND       PRES   REMARKS
CONCORDIA      CLEAR     57  54  89 E3        30.13R FOG
EMPORIA        CLOUDY    61  60  97 NE3       30.11S FOG
LAWRENCE       CLEAR     58  56  93 CALM      30.12S
MANHATTAN      CLEAR     56  54  93 N3        30.12S FOG
MARYSVILLE     CLEAR     55  54  94 CALM      30.14S
OLATHE IND     CLEAR     60  55  83 CALM      30.13S
OLATHE EXE     CLEAR     64  57  78 NE5       30.12S
SALINA         CLEAR     61  55  81 CALM      30.12S
TOPEKA BILLARD CLEAR     59  56  89 CALM      30.12S
TOPEKA FORBES  CLEAR     60  58  92 CALM      30.12S
$$



USA.gov is the U.S. government's official web portal to all federal, state and local government web resources and services.